| time (UTC) | temp C | wind direction | speed KPH | gust KPH | rain 1hr cm | rain 24hr cm | rain mn cm | humidity % | barometer mb |
| 20260510191256 | 13 | 148 | 0.0 | 4.8 | 0.00 | 0.00 | 0.00 | 57 | 1017.3 |
| 20260510190755 | 13 | 196 | 1.6 | 11.3 | 0.00 | 0.00 | 0.00 | 56 | 1017.4 |
| 20260510190254 | 14 | 273 | 0.0 | 3.2 | 0.00 | 0.00 | 0.00 | 55 | 1017.4 |
| 20260510185256 | 15 | 111 | 0.0 | 8.0 | 0.00 | 0.00 | 0.00 | 53 | 1017.4 |
| 20260510184255 | 15 | 220 | 1.6 | 9.7 | 0.00 | 0.00 | 0.00 | 52 | 1017.5 |
| 20260510182755 | 15 | 79 | 1.6 | 11.3 | 0.00 | 0.00 | 0.00 | 52 | 1017.5 |
| 20260510181757 | 15 | 115 | 1.6 | 8.0 | 0.00 | 0.00 | 0.00 | 51 | 1017.5 |
| 20260510181256 | 15 | 139 | 1.6 | 9.7 | 0.00 | 0.00 | 0.00 | 51 | 1017.5 |
| 20260510180256 | 15 | 167 | 3.2 | 9.7 | 0.00 | 0.00 | 0.00 | 50 | 1017.5 |
| 20260510175755 | 15 | 205 | 3.2 | 9.7 | 0.00 | 0.00 | 0.00 | 50 | 1017.5 |
| 20260510175256 | 15 | 208 | 1.6 | 8.0 | 0.00 | 0.00 | 0.00 | 49 | 1017.5 |
| 20260510174756 | 15 | 271 | 1.6 | 9.7 | 0.00 | 0.00 | 0.00 | 49 | 1017.5 |
| 20260510174255 | 15 | 264 | 3.2 | 12.9 | 0.00 | 0.00 | 0.00 | 50 | 1017.5 |
| 20260510173756 | 15 | 295 | 6.4 | 19.3 | 0.00 | 0.00 | 0.00 | 51 | 1017.6 |
| 20260510172256 | 15 | 305 | 4.8 | 12.9 | 0.00 | 0.03 | 0.00 | 51 | 1017.8 |
| 20260510171756 | 15 | 271 | 6.4 | 19.3 | 0.00 | 0.03 | 0.00 | 50 | 1017.9 |
| 20260510170756 | 15 | 256 | 1.6 | 11.3 | 0.00 | 0.03 | 0.00 | 51 | 1017.9 |
| 20260510165757 | 15 | 282 | 3.2 | 11.3 | 0.00 | 0.03 | 0.00 | 51 | 1018.0 |
| 20260510164756 | 15 | 302 | 8.0 | 19.3 | 0.00 | 0.03 | 0.00 | 51 | 1018.0 |
| 20260510164256 | 15 | 323 | 9.7 | 22.5 | 0.00 | 0.03 | 0.00 | 52 | 1018.0 |
| 20260510163255 | 15 | 296 | 8.0 | 19.3 | 0.00 | 0.03 | 0.00 | 51 | 1018.1 |
| 20260510162756 | 16 | 277 | 3.2 | 14.5 | 0.00 | 0.03 | 0.00 | 51 | 1018.1 |
| 20260510162257 | 16 | 222 | 3.2 | 9.7 | 0.00 | 0.03 | 0.00 | 50 | 1018.0 |
| 20260510161757 | 15 | 118 | 1.6 | 9.7 | 0.00 | 0.03 | 0.00 | 52 | 1018.0 |
| 20260510161256 | 15 | 304 | 8.0 | 19.3 | 0.00 | 0.03 | 0.00 | 52 | 1018.0 |
| 20260510160756 | 15 | 310 | 14.5 | 22.5 | 0.00 | 0.03 | 0.00 | 52 | 1018.0 |
| 20260510160257 | 15 | 304 | 8.0 | 12.9 | 0.00 | 0.03 | 0.00 | 51 | 1018.2 |
| 20260510155756 | 15 | 311 | 9.7 | 14.5 | 0.00 | 0.03 | 0.00 | 52 | 1018.3 |
| 20260510155257 | 15 | 292 | 4.8 | 9.7 | 0.00 | 0.03 | 0.00 | 52 | 1018.4 |
| 20260510154756 | 15 | 294 | 11.3 | 16.1 | 0.00 | 0.03 | 0.00 | 51 | 1018.6 |
| 20260510154257 | 15 | 312 | 4.8 | 12.9 | 0.00 | 0.03 | 0.00 | 53 | 1018.7 |
| 20260510153758 | 15 | 122 | 4.8 | 14.5 | 0.00 | 0.03 | 0.00 | 53 | 1018.8 |
| 20260510153257 | 15 | 307 | 8.0 | 12.9 | 0.00 | 0.03 | 0.00 | 53 | 1018.7 |
| 20260510152756 | 15 | 293 | 8.0 | 16.1 | 0.00 | 0.03 | 0.00 | 52 | 1018.8 |
| 20260510152258 | 15 | 247 | 3.2 | 11.3 | 0.00 | 0.03 | 0.00 | 52 | 1018.8 |
| 20260510151756 | 15 | 248 | 4.8 | 11.3 | 0.00 | 0.03 | 0.00 | 52 | 1018.9 |
| 20260510151257 | 15 | 286 | 1.6 | 9.7 | 0.00 | 0.03 | 0.00 | 52 | 1018.9 |
| 20260510150757 | 15 | 273 | 4.8 | 22.5 | 0.00 | 0.03 | 0.00 | 52 | 1018.9 |
| 20260510150258 | 15 | 97 | 3.2 | 9.7 | 0.00 | 0.03 | 0.00 | 53 | 1018.9 |
| 20260510144756 | 15 | 104 | 3.2 | 9.7 | 0.00 | 0.03 | 0.00 | 52 | 1019.0 |
| 20260510144256 | 15 | 270 | 3.2 | 9.7 | 0.00 | 0.03 | 0.00 | 54 | 1018.9 |
| 20260510143757 | 15 | 299 | 1.6 | 8.0 | 0.00 | 0.03 | 0.00 | 53 | 1019.0 |
| 20260510142758 | 15 | 127 | 1.6 | 9.7 | 0.00 | 0.03 | 0.00 | 54 | 1019.1 |
| 20260510142258 | 15 | 106 | 3.2 | 9.7 | 0.00 | 0.03 | 0.00 | 53 | 1019.1 |
| 20260510141757 | 15 | 131 | 1.6 | 9.7 | 0.00 | 0.03 | 0.00 | 55 | 1019.2 |
| 20260510141257 | 15 | 211 | 3.2 | 11.3 | 0.00 | 0.03 | 0.00 | 54 | 1019.3 |
| 20260510140257 | 15 | 89 | 1.6 | 8.0 | 0.00 | 0.03 | 0.00 | 54 | 1019.4 |
| 20260510135757 | 15 | 123 | 3.2 | 9.7 | 0.00 | 0.03 | 0.00 | 53 | 1019.5 |
| 20260510135257 | 15 | 80 | 1.6 | 9.7 | 0.00 | 0.03 | 0.00 | 56 | 1019.4 |
| 20260510134759 | 15 | 108 | 3.2 | 12.9 | 0.00 | 0.03 | 0.00 | 54 | 1019.6 |
| 20260510133758 | 15 | 304 | 14.5 | 22.5 | 0.00 | 0.03 | 0.00 | 52 | 1019.5 |
| 20260510133300 | 15 | 296 | 6.4 | 16.1 | 0.00 | 0.03 | 0.00 | 54 | 1019.7 |
| 20260510132758 | 15 | 138 | 3.2 | 9.7 | 0.00 | 0.03 | 0.00 | 55 | 1019.7 |
| 20260510131759 | 15 | 164 | 3.2 | 14.5 | 0.00 | 0.03 | 0.00 | 56 | 1019.8 |
| 20260510131259 | 15 | 99 | 1.6 | 9.7 | 0.00 | 0.03 | 0.00 | 58 | 1019.9 |
| 20260510130758 | 15 | 158 | 4.8 | 14.5 | 0.00 | 0.03 | 0.00 | 55 | 1019.9 |
| 20260510130258 | 15 | 287 | 4.8 | 16.1 | 0.00 | 0.03 | 0.00 | 55 | 1019.9 |
| 20260510125808 | 15 | 303 | 4.8 | 16.1 | 0.00 | 0.03 | 0.00 | 56 | 1020.0 |
| 20260510125258 | 16 | 226 | 3.2 | 12.9 | 0.00 | 0.03 | 0.00 | 55 | 1020.1 |
| 20260510123800 | 15 | 288 | 1.6 | 12.9 | 0.00 | 0.03 | 0.00 | 55 | 1020.2 |
| 20260510123259 | 15 | 305 | 3.2 | 11.3 | 0.00 | 0.03 | 0.00 | 55 | 1020.3 |
| 20260510122758 | 15 | 191 | 4.8 | 16.1 | 0.00 | 0.03 | 0.00 | 55 | 1020.2 |
| 20260510122257 | 15 | 249 | 4.8 | 12.9 | 0.00 | 0.03 | 0.00 | 56 | 1020.3 |
| 20260510121757 | 15 | 114 | 4.8 | 11.3 | 0.00 | 0.03 | 0.00 | 58 | 1020.4 |
| 20260510121258 | 15 | 257 | 3.2 | 8.0 | 0.00 | 0.03 | 0.00 | 57 | 1020.4 |
| 20260510120758 | 15 | 294 | 1.6 | 8.0 | 0.00 | 0.03 | 0.00 | 61 | 1020.4 |
| 20260510120258 | 14 | 285 | 4.8 | 9.7 | 0.00 | 0.03 | 0.00 | 60 | 1020.5 |
| 20260510114758 | 14 | 222 | 1.6 | 14.5 | 0.00 | 0.03 | 0.00 | 63 | 1020.5 |
| 20260510114300 | 14 | 296 | 1.6 | 19.3 | 0.00 | 0.03 | 0.00 | 62 | 1020.6 |
| 20260510113300 | 13 | 267 | 1.6 | 9.7 | 0.00 | 0.03 | 0.00 | 62 | 1020.7 |
| 20260510112758 | 13 | 102 | 1.6 | 9.7 | 0.00 | 0.03 | 0.00 | 64 | 1020.7 |
| 20260510112259 | 13 | 215 | 3.2 | 11.3 | 0.00 | 0.03 | 0.00 | 63 | 1020.7 |
| 20260510111758 | 13 | 244 | 3.2 | 12.9 | 0.00 | 0.03 | 0.00 | 63 | 1020.7 |
| 20260510111300 | 14 | 239 | 1.6 | 9.7 | 0.00 | 0.03 | 0.00 | 63 | 1020.7 |
| 20260510110758 | 13 | 284 | 1.6 | 14.5 | 0.00 | 0.03 | 0.00 | 65 | 1020.6 |
| 20260510105759 | 13 | 277 | 3.2 | 12.9 | 0.00 | 0.03 | 0.00 | 66 | 1020.7 |
| 20260510105259 | 13 | 129 | 3.2 | 9.7 | 0.00 | 0.03 | 0.00 | 65 | 1020.8 |
| 20260510104758 | 13 | 250 | 3.2 | 9.7 | 0.00 | 0.03 | 0.00 | 66 | 1020.8 |
| 20260510104258 | 13 | 296 | 4.8 | 12.9 | 0.00 | 0.03 | 0.00 | 65 | 1020.7 |
| 20260510103759 | 13 | 118 | 3.2 | 12.9 | 0.00 | 0.03 | 0.00 | 66 | 1020.8 |
| 20260510103301 | 13 | 275 | 6.4 | 14.5 | 0.00 | 0.03 | 0.00 | 65 | 1020.9 |
| 20260510102800 | 13 | 114 | 4.8 | 11.3 | 0.00 | 0.03 | 0.00 | 65 | 1020.9 |
| 20260510102300 | 13 | 246 | 3.2 | 8.0 | 0.00 | 0.03 | 0.00 | 67 | 1021.0 |
| 20260510101800 | 13 | 142 | 4.8 | 12.9 | 0.00 | 0.03 | 0.00 | 68 | 1020.9 |
| 20260510101259 | 13 | 218 | 3.2 | 16.1 | 0.00 | 0.03 | 0.00 | 68 | 1021.0 |
| 20260510100800 | 13 | 143 | 3.2 | 12.9 | 0.00 | 0.03 | 0.00 | 68 | 1021.0 |
| 20260510095801 | 12 | 355 | 3.2 | 12.9 | 0.00 | 0.03 | 0.00 | 70 | 1021.0 |
| 20260510095259 | 12 | 215 | 3.2 | 14.5 | 0.00 | 0.03 | 0.00 | 71 | 1021.1 |
| 20260510094759 | 12 | 257 | 3.2 | 11.3 | 0.00 | 0.03 | 0.00 | 72 | 1021.1 |
| 20260510094300 | 12 | 284 | 3.2 | 14.5 | 0.00 | 0.03 | 0.00 | 72 | 1021.2 |
| 20260510093800 | 12 | 302 | 1.6 | 19.3 | 0.00 | 0.03 | 0.00 | 72 | 1021.2 |
| 20260510092800 | 12 | 260 | 1.6 | 9.7 | 0.00 | 0.03 | 0.00 | 73 | 1021.2 |
| 20260510092259 | 11 | 97 | 4.8 | 12.9 | 0.00 | 0.03 | 0.00 | 74 | 1021.3 |
| 20260510091759 | 11 | 304 | 4.8 | 16.1 | 0.00 | 0.03 | 0.00 | 74 | 1021.5 |
| 20260510091300 | 11 | 298 | 4.8 | 19.3 | 0.00 | 0.03 | 0.00 | 74 | 1021.4 |
| 20260510090800 | 11 | 288 | 1.6 | 11.3 | 0.00 | 0.03 | 0.00 | 74 | 1021.4 |
| 20260510090259 | 11 | 295 | 4.8 | 11.3 | 0.00 | 0.03 | 0.00 | 74 | 1021.5 |
| 20260510084801 | 10 | 305 | 3.2 | 12.9 | 0.00 | 0.03 | 0.00 | 75 | 1021.7 |
| 20260510084259 | 10 | 291 | 4.8 | 9.7 | 0.00 | 0.03 | 0.00 | 75 | 1021.6 |
| 20260510083259 | 10 | 316 | 4.8 | 16.1 | 0.00 | 0.03 | 0.00 | 76 | 1021.7 |
| 20260510082801 | 10 | 292 | 3.2 | 14.5 | 0.00 | 0.03 | 0.00 | 76 | 1021.7 |
| 20260510081300 | 10 | 294 | 1.6 | 9.7 | 0.00 | 0.03 | 0.00 | 77 | 1021.6 |
| 20260510080801 | 10 | 309 | 8.0 | 14.5 | 0.00 | 0.03 | 0.00 | 73 | 1021.7 |
| 20260510080304 | 10 | 185 | 1.6 | 9.7 | 0.00 | 0.03 | 0.00 | 74 | 1021.6 |
| 20260510075803 | 9 | 199 | 1.6 | 8.0 | 0.00 | 0.03 | 0.00 | 75 | 1021.6 |
| 20260510075317 | 9 | 294 | 1.6 | 9.7 | 0.00 | 0.03 | 0.00 | 76 | 1021.6 |
| 20260510074804 | 9 | 305 | 4.8 | 22.5 | 0.00 | 0.03 | 0.00 | 75 | 1021.7 |
| 20260510074325 | 8 | 322 | 1.6 | 9.7 | 0.00 | 0.03 | 0.00 | 77 | 1021.6 |
| 20260510073800 | 8 | 303 | 0.0 | 9.7 | 0.00 | 0.03 | 0.00 | 78 | 1021.6 |
| 20260510073300 | 8 | 286 | 3.2 | 8.0 | 0.00 | 0.03 | 0.00 | 78 | 1021.7 |
| 20260510072800 | 8 | 302 | 3.2 | 9.7 | 0.00 | 0.03 | 0.00 | 79 | 1021.6 |
| 20260510072300 | 7 | 290 | 6.4 | 11.3 | 0.00 | 0.03 | 0.00 | 79 | 1021.6 |
| 20260510071800 | 7 | 309 | 3.2 | 12.9 | 0.00 | 0.03 | 0.00 | 79 | 1021.6 |
| 20260510071302 | 7 | 301 | 4.8 | 12.9 | 0.00 | 0.03 | 0.00 | 80 | 1021.6 |
| 20260510070802 | 7 | 288 | 4.8 | 9.7 | 0.00 | 0.03 | 0.00 | 80 | 1021.6 |
| 20260510070301 | 7 | 305 | 6.4 | 11.3 | 0.00 | 0.03 | 0.00 | 80 | 1021.6 |
| 20260510065800 | 7 | 308 | 3.2 | 9.7 | 0.00 | 0.03 | 0.00 | 80 | 1021.6 |
| 20260510064800 | 6 | 298 | 3.2 | 11.3 | 0.00 | 0.03 | 0.00 | 82 | 1021.5 |
| 20260510064301 | 6 | 303 | 8.0 | 14.5 | 0.00 | 0.03 | 0.00 | 82 | 1021.5 |
| 20260510063801 | 6 | 304 | 4.8 | 9.7 | 0.00 | 0.03 | 0.00 | 83 | 1021.5 |
| 20260510063301 | 6 | 294 | 3.2 | 20.9 | 0.00 | 0.03 | 0.00 | 83 | 1021.4 |
| 20260510062801 | 6 | 298 | 4.8 | 14.5 | 0.00 | 0.05 | 0.00 | 83 | 1021.4 |
| 20260510062301 | 6 | 307 | 4.8 | 11.3 | 0.00 | 0.05 | 0.00 | 84 | 1021.4 |
| 20260510061801 | 5 | 304 | 6.4 | 9.7 | 0.00 | 0.05 | 0.00 | 84 | 1021.4 |
| 20260510061302 | 5 | 308 | 4.8 | 11.3 | 0.00 | 0.05 | 0.00 | 84 | 1021.4 |
| 20260510060301 | 5 | 309 | 8.0 | 9.7 | 0.00 | 0.05 | 0.00 | 85 | 1021.4 |
| 20260510055801 | 5 | 312 | 8.0 | 14.5 | 0.00 | 0.05 | 0.00 | 85 | 1021.4 |
| 20260510055301 | 5 | 307 | 9.7 | 19.3 | 0.00 | 0.05 | 0.00 | 85 | 1021.3 |
| 20260510054301 | 4 | 313 | 11.3 | 19.3 | 0.00 | 0.05 | 0.00 | 86 | 1021.3 |
| 20260510052801 | 4 | 313 | 11.3 | 16.1 | 0.00 | 0.05 | 0.00 | 86 | 1021.4 |
| 20260510052301 | 4 | 311 | 11.3 | 20.9 | 0.00 | 0.05 | 0.00 | 86 | 1021.4 |
| 20260510051801 | 4 | 316 | 12.9 | 19.3 | 0.00 | 0.05 | 0.00 | 86 | 1021.3 |
| 20260510051301 | 4 | 310 | 11.3 | 22.5 | 0.00 | 0.05 | 0.00 | 86 | 1021.3 |
| 20260510050801 | 4 | 317 | 14.5 | 20.9 | 0.00 | 0.05 | 0.00 | 86 | 1021.3 |
| 20260510050301 | 4 | 309 | 12.9 | 20.9 | 0.00 | 0.05 | 0.00 | 86 | 1021.3 |
| 20260510045803 | 4 | 317 | 11.3 | 14.5 | 0.00 | 0.05 | 0.00 | 86 | 1021.3 |
| 20260510044801 | 4 | 314 | 11.3 | 19.3 | 0.00 | 0.05 | 0.00 | 86 | 1021.4 |
| 20260510044303 | 4 | 311 | 11.3 | 16.1 | 0.00 | 0.05 | 0.00 | 86 | 1021.4 |
| 20260510043802 | 4 | 313 | 11.3 | 14.5 | 0.00 | 0.05 | 0.00 | 85 | 1021.5 |
| 20260510043301 | 4 | 307 | 8.0 | 20.9 | 0.00 | 0.05 | 0.00 | 85 | 1021.4 |
| 20260510042803 | 5 | 310 | 9.7 | 14.5 | 0.00 | 0.05 | 0.00 | 85 | 1021.4 |
| 20260510042305 | 5 | 311 | 11.3 | 16.1 | 0.00 | 0.05 | 0.00 | 85 | 1021.5 |
| 20260510041801 | 5 | 308 | 11.3 | 14.5 | 0.00 | 0.05 | 0.00 | 85 | 1021.5 |
| 20260510041302 | 5 | 310 | 8.0 | 14.5 | 0.00 | 0.05 | 0.00 | 85 | 1021.5 |
| 20260510040802 | 5 | 309 | 9.7 | 16.1 | 0.00 | 0.05 | 0.00 | 85 | 1021.5 |
| 20260510040301 | 5 | 306 | 9.7 | 20.9 | 0.00 | 0.05 | 0.00 | 85 | 1021.6 |
| 20260510035803 | 5 | 312 | 11.3 | 16.1 | 0.00 | 0.05 | 0.00 | 84 | 1021.6 |
| 20260510035305 | 5 | 310 | 9.7 | 19.3 | 0.00 | 0.05 | 0.00 | 84 | 1021.6 |
| 20260510034802 | 5 | 308 | 9.7 | 22.5 | 0.00 | 0.05 | 0.00 | 84 | 1021.5 |
| 20260510034302 | 5 | 309 | 11.3 | 20.9 | 0.00 | 0.05 | 0.00 | 84 | 1021.5 |
| 20260510033803 | 5 | 309 | 11.3 | 16.1 | 0.00 | 0.05 | 0.00 | 84 | 1021.6 |
| 20260510033302 | 5 | 310 | 9.7 | 14.5 | 0.00 | 0.05 | 0.00 | 84 | 1021.6 |
| 20260510032802 | 5 | 312 | 9.7 | 16.1 | 0.00 | 0.05 | 0.00 | 83 | 1021.6 |
| 20260510032306 | 5 | 312 | 9.7 | 16.1 | 0.00 | 0.05 | 0.00 | 83 | 1021.7 |
| 20260510031802 | 5 | 304 | 8.0 | 12.9 | 0.00 | 0.05 | 0.00 | 83 | 1021.7 |
| 20260510030802 | 5 | 310 | 8.0 | 12.9 | 0.00 | 0.05 | 0.00 | 82 | 1021.7 |
| 20260510025305 | 5 | 302 | 4.8 | 11.3 | 0.00 | 0.05 | 0.00 | 81 | 1021.8 |
| 20260510024302 | 5 | 300 | 9.7 | 16.1 | 0.00 | 0.05 | 0.00 | 81 | 1021.9 |
| 20260510023805 | 5 | 299 | 4.8 | 11.3 | 0.00 | 0.05 | 0.00 | 81 | 1021.9 |
| 20260510023302 | 6 | 311 | 4.8 | 11.3 | 0.00 | 0.05 | 0.00 | 81 | 1021.9 |
| 20260510022306 | 6 | 300 | 6.4 | 12.9 | 0.00 | 0.05 | 0.00 | 80 | 1021.9 |
| 20260510021302 | 6 | 303 | 4.8 | 9.7 | 0.00 | 0.05 | 0.00 | 80 | 1022.0 |
| 20260510020803 | 6 | 308 | 1.6 | 9.7 | 0.00 | 0.05 | 0.00 | 80 | 1022.0 |
| 20260510020303 | 6 | 293 | 4.8 | 12.9 | 0.00 | 0.05 | 0.00 | 80 | 1022.0 |
| 20260510015804 | 6 | 310 | 4.8 | 16.1 | 0.00 | 0.05 | 0.00 | 79 | 1021.9 |
| 20260510014803 | 6 | 305 | 6.4 | 11.3 | 0.00 | 0.05 | 0.00 | 79 | 1021.9 |
| 20260510013803 | 6 | 310 | 11.3 | 19.3 | 0.00 | 0.05 | 0.00 | 78 | 1021.8 |
| 20260510013304 | 6 | 314 | 8.0 | 20.9 | 0.00 | 0.05 | 0.00 | 78 | 1021.9 |
| 20260510012804 | 6 | 315 | 8.0 | 12.9 | 0.00 | 0.05 | 0.00 | 78 | 1022.0 |
| 20260510012306 | 6 | 299 | 6.4 | 16.1 | 0.00 | 0.05 | 0.00 | 78 | 1021.9 |
| 20260510011805 | 6 | 301 | 9.7 | 19.3 | 0.00 | 0.05 | 0.00 | 78 | 1021.9 |
| 20260510010803 | 6 | 303 | 11.3 | 19.3 | 0.00 | 0.05 | 0.00 | 77 | 1022.0 |
| 20260510005803 | 6 | 301 | 9.7 | 19.3 | 0.00 | 0.05 | 0.00 | 77 | 1021.9 |
| 20260510004803 | 6 | 305 | 6.4 | 14.5 | 0.00 | 0.05 | 0.00 | 77 | 1021.9 |
| 20260510004303 | 6 | 299 | 9.7 | 16.1 | 0.00 | 0.05 | 0.00 | 76 | 1021.9 |
| 20260510003804 | 6 | 302 | 9.7 | 19.3 | 0.00 | 0.05 | 0.00 | 76 | 1021.9 |
| 20260510003303 | 7 | 311 | 8.0 | 14.5 | 0.00 | 0.05 | 0.00 | 76 | 1021.9 |
| 20260510002306 | 7 | 307 | 8.0 | 11.3 | 0.00 | 0.05 | 0.00 | 75 | 1021.9 |
| 20260510001804 | 7 | 310 | 8.0 | 16.1 | 0.00 | 0.05 | 0.00 | 75 | 1022.0 |
| 20260510001303 | 7 | 309 | 6.4 | 16.1 | 0.00 | 0.05 | 0.00 | 75 | 1022.1 |
| 20260510000304 | 7 | 301 | 8.0 | 14.5 | 0.00 | 0.05 | 0.00 | 75 | 1022.1 |
| 20260509235825 | 7 | 309 | 6.4 | 11.3 | 0.00 | 0.05 | 0.00 | 75 | 1022.1 |
| 20260509235324 | 7 | 299 | 9.7 | 16.1 | 0.00 | 0.05 | 0.00 | 75 | 1022.0 |
| 20260509234824 | 7 | 305 | 8.0 | 12.9 | 0.00 | 0.05 | 0.00 | 75 | 1022.0 |
| 20260509234324 | 7 | 306 | 6.4 | 12.9 | 0.00 | 0.05 | 0.00 | 75 | 1022.0 |
| 20260509233824 | 7 | 312 | 8.0 | 12.9 | 0.00 | 0.05 | 0.00 | 75 | 1022.1 |
| 20260509233324 | 7 | 308 | 9.7 | 14.5 | 0.00 | 0.05 | 0.00 | 75 | 1022.0 |
| 20260509232326 | 7 | 309 | 9.7 | 12.9 | 0.00 | 0.05 | 0.00 | 76 | 1022.0 |
| 20260509231826 | 7 | 311 | 9.7 | 12.9 | 0.00 | 0.05 | 0.00 | 76 | 1022.0 |
| 20260509231324 | 7 | 314 | 9.7 | 14.5 | 0.00 | 0.05 | 0.00 | 76 | 1022.0 |
| 20260509230843 | 8 | 314 | 9.7 | 16.1 | 0.00 | 0.05 | 0.00 | 77 | 1022.0 |
| 20260509230324 | 8 | 309 | 6.4 | 9.7 | 0.00 | 0.05 | 0.00 | 76 | 1022.0 |
| 20260509225825 | 8 | 316 | 6.4 | 11.3 | 0.00 | 0.05 | 0.00 | 76 | 1021.9 |
| 20260509225326 | 8 | 310 | 4.8 | 11.3 | 0.00 | 0.05 | 0.00 | 76 | 1021.9 |
| 20260509224326 | 8 | 308 | 8.0 | 12.9 | 0.00 | 0.05 | 0.00 | 75 | 1021.8 |
| 20260509223825 | 8 | 311 | 4.8 | 9.7 | 0.00 | 0.05 | 0.00 | 75 | 1021.8 |
| 20260509223324 | 9 | 308 | 4.8 | 9.7 | 0.00 | 0.05 | 0.00 | 75 | 1021.9 |
| 20260509222325 | 9 | 306 | 4.8 | 14.5 | 0.00 | 0.05 | 0.00 | 74 | 1021.8 |
| 20260509221825 | 9 | 312 | 9.7 | 14.5 | 0.00 | 0.05 | 0.00 | 74 | 1021.7 |
| 20260509221325 | 9 | 312 | 9.7 | 12.9 | 0.00 | 0.05 | 0.00 | 74 | 1021.7 |
| 20260509220825 | 9 | 301 | 6.4 | 9.7 | 0.00 | 0.05 | 0.00 | 74 | 1021.7 |
| 20260509215825 | 9 | 307 | 8.0 | 11.3 | 0.00 | 0.05 | 0.00 | 73 | 1021.7 |
| 20260509214825 | 9 | 305 | 4.8 | 12.9 | 0.00 | 0.05 | 0.00 | 73 | 1021.6 |
| 20260509214325 | 9 | 317 | 6.4 | 9.7 | 0.00 | 0.05 | 0.00 | 73 | 1021.6 |
| 20260509213825 | 10 | 310 | 8.0 | 12.9 | 0.00 | 0.05 | 0.00 | 72 | 1021.5 |
| 20260509213325 | 10 | 315 | 8.0 | 11.3 | 0.00 | 0.05 | 0.00 | 72 | 1021.5 |
| 20260509212825 | 10 | 314 | 8.0 | 11.3 | 0.00 | 0.05 | 0.00 | 72 | 1021.5 |
| 20260509212325 | 10 | 308 | 4.8 | 11.3 | 0.00 | 0.05 | 0.00 | 72 | 1021.5 |
| 20260509211827 | 10 | 311 | 4.8 | 9.7 | 0.00 | 0.05 | 0.00 | 72 | 1021.4 |
| 20260509211326 | 10 | 312 | 4.8 | 9.7 | 0.00 | 0.05 | 0.00 | 73 | 1021.5 |
| 20260509210827 | 10 | 313 | 3.2 | 4.8 | 0.00 | 0.05 | 0.00 | 73 | 1021.5 |
| 20260509210327 | 10 | 298 | 0.0 | 3.2 | 0.00 | 0.05 | 0.00 | 73 | 1021.5 |
| 20260509205825 | 10 | 315 | 0.0 | 3.2 | 0.00 | 0.05 | 0.00 | 72 | 1021.4 |
| 20260509204825 | 11 | 310 | 0.0 | 3.2 | 0.00 | 0.05 | 0.00 | 73 | 1021.2 |
| 20260509204325 | 11 | 316 | 1.6 | 9.7 | 0.00 | 0.05 | 0.00 | 72 | 1021.2 |
| 20260509203825 | 11 | 313 | 3.2 | 9.7 | 0.00 | 0.05 | 0.00 | 71 | 1021.1 |
| 20260509203325 | 11 | 300 | 1.6 | 4.8 | 0.00 | 0.05 | 0.00 | 71 | 1021.1 |
| 20260509202825 | 11 | 206 | 0.0 | 3.2 | 0.00 | 0.05 | 0.00 | 70 | 1021.0 |
| 20260509202325 | 11 | 276 | 0.0 | 1.6 | 0.00 | 0.05 | 0.00 | 70 | 1021.0 |
| 20260509201826 | 12 | 259 | 1.6 | 4.8 | 0.00 | 0.05 | 0.00 | 69 | 1020.9 |
| 20260509201327 | 12 | 280 | 1.6 | 8.0 | 0.00 | 0.05 | 0.00 | 69 | 1021.0 |
| 20260509200326 | 12 | 154 | 1.6 | 8.0 | 0.00 | 0.05 | 0.00 | 68 | 1021.0 |
| 20260509195826 | 12 | 108 | 1.6 | 9.7 | 0.00 | 0.05 | 0.00 | 68 | 1020.9 |
| 20260509195326 | 12 | 168 | 1.6 | 9.7 | 0.00 | 0.05 | 0.00 | 69 | 1020.8 |
| 20260509194826 | 12 | 108 | 1.6 | 4.8 | 0.00 | 0.05 | 0.00 | 69 | 1020.7 |
| 20260509194326 | 13 | 121 | 1.6 | 8.0 | 0.00 | 0.05 | 0.00 | 68 | 1020.6 |
| 20260509193826 | 13 | 226 | 0.0 | 3.2 | 0.00 | 0.05 | 0.00 | 69 | 1020.7 |
| 20260509193327 | 13 | 103 | 0.0 | 4.8 | 0.00 | 0.05 | 0.00 | 69 | 1020.6 |
| 20260509192828 | 13 | 113 | 0.0 | 1.6 | 0.00 | 0.05 | 0.00 | 68 | 1020.6 |